SPCBI EYVI-EPKT

Flight info

Callsign SPCBI
Flight time N/A
Altitude 30000
Route EYVI/19 UPASI1B/19 UPASI DCT TITUV M985 EVINA M66 KUKAM KUKA5D EPKT/PABWO.I26
Aircraft SF50/L-SBDGRWY/LB2U2

Departure

Time N/A
Airport Vilnius International Airport (EYVI)

Arrival

Time 2026-05-03 20:36
Airport Katowice Wojciech Korfanty International Airport (EPKT)
Time Latitude Longitude Altitude Speed Heading
2026-05-03 20:15 50.47633 18.89269 2952 ft 89 kts 260°
2026-05-03 20:15 50.47633 18.88302 2950 ft 88 kts 259°
2026-05-03 20:15 50.47634 18.87341 2945 ft 88 kts 258°
2026-05-03 20:15 50.47632 18.86363 2952 ft 91 kts 258°
2026-05-03 20:16 50.47630 18.85364 2957 ft 92 kts 259°
2026-05-03 20:16 50.47631 18.84387 2956 ft 91 kts 257°
2026-05-03 20:16 50.47632 18.83396 2956 ft 91 kts 256°
2026-05-03 20:16 50.47633 18.82401 2956 ft 91 kts 256°
2026-05-03 20:17 50.47631 18.81411 2953 ft 92 kts 255°
2026-05-03 20:17 50.47622 18.80295 2973 ft 116 kts 257°
2026-05-03 20:17 50.47614 18.78845 3230 ft 149 kts 261°
2026-05-03 20:17 50.47621 18.77136 3867 ft 165 kts 263°
2026-05-03 20:18 50.47499 18.75183 3933 ft 191 kts 245°
2026-05-03 20:18 50.46664 18.73473 3924 ft 205 kts 224°
2026-05-03 20:18 50.45680 18.71831 3925 ft 207 kts 225°
2026-05-03 20:18 50.44679 18.70185 3921 ft 208 kts 220°
2026-05-03 20:19 50.43335 18.69438 3906 ft 210 kts 183°
2026-05-03 20:19 50.41900 18.69940 3906 ft 218 kts 160°
2026-05-03 20:19 50.40747 18.71547 3906 ft 231 kts 131°
2026-05-03 20:19 50.40267 18.74011 3903 ft 246 kts 97°
2026-05-03 20:20 50.40497 18.76682 3923 ft 250 kts 84°
2026-05-03 20:20 50.40812 18.79377 3933 ft 251 kts 85°
2026-05-03 20:20 50.41047 18.82020 3926 ft 244 kts 90°
2026-05-03 20:20 50.41004 18.84670 3927 ft 241 kts 98°
2026-05-03 20:21 50.40900 18.87182 3923 ft 220 kts 98°
2026-05-03 20:21 50.40891 18.89453 3924 ft 198 kts 92°
2026-05-03 20:21 50.41075 18.91500 3924 ft 179 kts 85°
2026-05-03 20:21 50.41288 18.93287 3924 ft 156 kts 86°
2026-05-03 20:22 50.41481 18.94866 3922 ft 142 kts 86°
2026-05-03 20:22 50.41609 18.95882 3927 ft 148 kts 86°
2026-05-03 20:22 50.41810 18.97598 3944 ft 172 kts 86°
2026-05-03 20:22 50.42018 18.99590 3948 ft 198 kts 87°
2026-05-03 20:23 50.42180 19.01855 3948 ft 218 kts 91°
2026-05-03 20:23 50.42295 19.04258 3947 ft 222 kts 91°
2026-05-03 20:23 50.42402 19.06698 3945 ft 226 kts 91°
2026-05-03 20:23 50.42502 19.09160 3944 ft 227 kts 91°
2026-05-03 20:24 50.42605 19.11627 3946 ft 226 kts 91°
2026-05-03 20:24 50.42712 19.14070 3946 ft 225 kts 91°
2026-05-03 20:24 50.42817 19.16521 3942 ft 225 kts 91°
2026-05-03 20:24 50.42855 19.18942 3940 ft 224 kts 95°
2026-05-03 20:25 50.42852 19.21327 3945 ft 209 kts 95°
2026-05-03 20:25 50.42860 19.23497 3936 ft 188 kts 95°
2026-05-03 20:25 50.42912 19.25421 3927 ft 165 kts 95°
2026-05-03 20:25 50.42950 19.27121 3924 ft 146 kts 95°
2026-05-03 20:26 50.42997 19.28629 3922 ft 132 kts 95°
2026-05-03 20:26 50.43054 19.29997 3924 ft 120 kts 95°
2026-05-03 20:26 50.43105 19.31272 3920 ft 116 kts 95°
2026-05-03 20:26 50.43147 19.32532 3925 ft 117 kts 96°
2026-05-03 20:27 50.43161 19.33822 3928 ft 121 kts 95°
2026-05-03 20:27 50.43182 19.35258 3947 ft 145 kts 95°
2026-05-03 20:27 50.43182 19.36982 3944 ft 171 kts 95°
2026-05-03 20:27 50.43169 19.38939 3941 ft 180 kts 95°
2026-05-03 20:28 50.43161 19.40848 3937 ft 172 kts 95°
2026-05-03 20:28 50.43445 19.42660 3916 ft 180 kts 55°
2026-05-03 20:28 50.44498 19.43549 3924 ft 174 kts
2026-05-03 20:28 50.45638 19.43638 3923 ft 156 kts 359°
2026-05-03 20:29 50.46673 19.43753 3917 ft 143 kts 359°
2026-05-03 20:29 50.47597 19.43595 3915 ft 127 kts 317°
2026-05-03 20:29 50.47825 19.42483 3928 ft 109 kts 242°
2026-05-03 20:29 50.47578 19.41365 3942 ft 115 kts 265°
2026-05-03 20:30 50.47559 19.40043 3940 ft 131 kts 261°
2026-05-03 20:30 50.47539 19.38459 3943 ft 158 kts 264°
2026-05-03 20:30 50.47521 19.36586 3943 ft 186 kts 265°
2026-05-03 20:30 50.47535 19.34401 3951 ft 212 kts 266°
2026-05-03 20:31 50.47546 19.32065 3746 ft 207 kts 265°
2026-05-03 20:31 50.47555 19.29923 3493 ft 185 kts 264°
2026-05-03 20:31 50.47554 19.28026 3265 ft 164 kts 264°
2026-05-03 20:31 50.47564 19.26327 3058 ft 147 kts 263°
2026-05-03 20:32 50.47560 19.24785 2870 ft 136 kts 263°
2026-05-03 20:32 50.47569 19.23349 2700 ft 127 kts 262°
2026-05-03 20:32 50.47559 19.22020 2544 ft 121 kts 261°
2026-05-03 20:32 50.47576 19.20713 2384 ft 118 kts 263°
2026-05-03 20:33 50.47570 19.19452 2229 ft 111 kts 258°
2026-05-03 20:33 50.47546 19.18289 2081 ft 105 kts 267°
2026-05-03 20:33 50.47577 19.17207 1961 ft 92 kts 266°
2026-05-03 20:33 50.47675 19.16330 1818 ft 81 kts 274°
2026-05-03 20:34 50.47696 19.15441 1733 ft 84 kts 256°
2026-05-03 20:34 50.47663 19.14459 1622 ft 95 kts 264°
2026-05-03 20:34 50.47647 19.13419 1486 ft 93 kts 264°
2026-05-03 20:34 50.47594 19.12439 1358 ft 92 kts 266°
2026-05-03 20:35 50.47593 19.11412 1233 ft 92 kts 265°
2026-05-03 20:35 50.47589 19.10418 1113 ft 95 kts 270°
2026-05-03 20:35 50.47593 19.09395 1013 ft 84 kts 270°
2026-05-03 20:35 50.47595 19.08619 993 ft 61 kts 271°
2026-05-03 20:36 50.47600 19.08040 991 ft 46 kts 270°
2026-05-03 20:36 50.47603 19.07606 995 ft 34 kts 270°
2026-05-03 20:36 50.47598 19.07266 996 ft 27 kts 261°
2026-05-03 20:36 50.47545 19.07011 993 ft 24 kts 243°
2026-05-03 20:37 50.47476 19.06815 992 ft 18 kts 242°
2026-05-03 20:37 50.47427 19.06850 992 ft 14 kts 93°
2026-05-03 20:37 50.47425 19.07049 995 ft 25 kts 89°
2026-05-03 20:37 50.47424 19.07392 993 ft 36 kts 91°
2026-05-03 20:38 50.47423 19.07790 992 ft 37 kts 90°
2026-05-03 20:38 50.47422 19.08204 992 ft 39 kts 90°
2026-05-03 20:38 50.47422 19.08641 992 ft 41 kts 89°
2026-05-03 20:38 50.47422 19.09071 993 ft 36 kts 91°
2026-05-03 20:39 50.47442 19.09384 994 ft 20 kts 34°
2026-05-03 20:39 50.47502 19.09392 993 ft 0 kts 359°
2026-05-03 20:40 50.47546 19.09390 994 ft 14 kts 358°
2026-05-03 20:41 50.47597 19.09293 995 ft 0 kts 268°
2026-05-03 20:44 50.47596 19.09208 996 ft 37 kts 269°
2026-05-03 20:44 50.47595 19.08456 991 ft 97 kts 269°
2026-05-03 20:44 50.47559 19.07254 1097 ft 113 kts 266°
2026-05-03 20:44 50.47488 19.06051 1414 ft 103 kts 262°
2026-05-03 20:45 50.47434 19.04886 1729 ft 122 kts 262°
2026-05-03 20:45 50.47398 19.03406 1750 ft 148 kts 265°
2026-05-03 20:45 50.47375 19.01646 1746 ft 174 kts 265°
2026-05-03 20:45 50.47323 18.99650 1744 ft 188 kts 256°
2026-05-03 20:46 50.46835 18.97762 1738 ft 187 kts 236°
2026-05-03 20:46 50.46024 18.96103 1748 ft 202 kts 228°
2026-05-03 20:46 50.44784 18.94910 1737 ft 214 kts 199°
2026-05-03 20:46 50.43292 18.94493 1737 ft 226 kts 183°
2026-05-03 20:47 50.41748 18.95009 1727 ft 229 kts 161°
2026-05-03 20:47 50.40409 18.96381 1722 ft 235 kts 139°
2026-05-03 20:47 50.39503 18.98556 1730 ft 237 kts 116°
2026-05-03 20:47 50.39054 19.00908 1727 ft 215 kts 109°
2026-05-03 20:48 50.38640 19.03024 1726 ft 191 kts 116°
2026-05-03 20:48 50.38007 19.04663 1729 ft 163 kts 131°
2026-05-03 20:48 50.37418 19.06046 1725 ft 144 kts 128°
2026-05-03 20:48 50.36891 19.07254 1728 ft 126 kts 130°
2026-05-03 20:49 50.36453 19.08323 1730 ft 103 kts 129°
2026-05-03 20:49 50.36102 19.09160 1720 ft 91 kts 127°
2026-05-03 20:49 50.35760 19.10088 1750 ft 99 kts 134°
2026-05-03 20:49 50.35395 19.10956 1735 ft 94 kts 135°
2026-05-03 20:50 50.35028 19.11829 1740 ft 99 kts 127°
2026-05-03 20:50 50.34648 19.12728 1736 ft 98 kts 140°
2026-05-03 20:50 50.34245 19.13607 1744 ft 102 kts 128°
2026-05-03 20:50 50.33925 19.14594 1737 ft 99 kts 135°
2026-05-03 20:51 50.33512 19.15428 1742 ft 100 kts 135°
2026-05-03 20:51 50.33134 19.16338 1736 ft 99 kts 134°
2026-05-03 20:51 50.32695 19.17127 1732 ft 92 kts 156°
2026-05-03 20:51 50.32116 19.17426 1733 ft 86 kts 182°
2026-05-03 20:52 50.31548 19.17292 1734 ft 81 kts 205°
2026-05-03 20:52 50.31089 19.16806 1732 ft 80 kts 226°
2026-05-03 20:52 50.30795 19.16088 1728 ft 79 kts 225°
2026-05-03 20:52 50.30414 19.15452 1721 ft 81 kts 229°
2026-05-03 20:53 50.30057 19.14791 1734 ft 83 kts 223°
2026-05-03 20:53 50.29697 19.14087 1738 ft 83 kts 228°
2026-05-03 20:53 50.29333 19.13401 1725 ft 81 kts 230°
2026-05-03 20:53 50.28958 19.12749 1730 ft 81 kts 224°
2026-05-03 20:54 50.28605 19.12063 1726 ft 82 kts 237°
2026-05-03 20:54 50.27862 19.10697 1731 ft 81 kts 224°
2026-05-03 20:54 50.27487 19.10034 1729 ft 82 kts 226°
2026-05-03 20:55 50.27100 19.09394 1732 ft 80 kts 218°
2026-05-03 20:55 50.26727 19.08716 1714 ft 85 kts 227°
2026-05-03 20:55 50.26328 19.08067 1627 ft 83 kts 224°
2026-05-03 20:55 50.25951 19.07341 1523 ft 88 kts 228°
2026-05-03 20:56 50.25568 19.06582 1406 ft 91 kts 229°
2026-05-03 20:56 50.25156 19.05832 1293 ft 91 kts 230°
2026-05-03 20:56 50.24743 19.05069 1162 ft 90 kts 229°
2026-05-03 20:56 50.24321 19.04364 1051 ft 90 kts 223°
2026-05-03 20:57 50.23921 19.03590 938 ft 86 kts 233°
2026-05-03 20:57 50.23637 19.03043 919 ft 22 kts 230°
2026-05-03 20:57 50.23629 19.03027 918 ft 0 kts 230°
2026-05-03 20:57 50.23631 19.03018 919 ft 5 kts
2026-05-03 20:58 50.23701 19.03147 917 ft 22 kts 52°
2026-05-03 20:58 50.23817 19.03373 915 ft 31 kts 49°
2026-05-03 20:58 50.23917 19.03500 916 ft 9 kts 77°
2026-05-03 20:58 50.23988 19.03689 919 ft 20 kts 50°
2026-05-03 20:59 50.24070 19.03820 918 ft 16 kts 50°
2026-05-03 20:59 50.24100 19.03876 914 ft 15 kts 48°
2026-05-03 20:59 50.24157 19.03927 915 ft 7 kts 280°
2026-05-03 20:59 50.24141 19.03843 914 ft 11 kts 238°
2026-05-03 21:00 50.24108 19.03721 914 ft 14 kts 252°
2026-05-03 21:00 50.24098 19.03672 914 ft 14 kts 254°
2026-05-03 21:00 50.24059 19.03443 915 ft 15 kts 259°
2026-05-03 21:00 50.24064 19.03278 916 ft 15 kts 291°
2026-05-03 21:01 50.24060 19.03165 916 ft 6 kts 313°
2026-05-03 21:01 50.24074 19.03156 916 ft 0 kts 345°